1341187228025,55.1658
1341187288025,55.2914
1341187348025,55.3588
1341187408025,55.2379
1341187468025,55.1773
1341187528025,55.4463
1341187588025,55.3712
1341187648025,55.3722
1341187708025,55.2067
1341187768025,55.2157
1341187828025,55.0739
1341187888025,55.2922
1341187948025,55.2816
1341188008025,55.2166
1341188068025,55.2228
1341188128025,55.1958
1341188188025,55.3943
1341188248025,55.1472
1341188308025,55.1946
1341188368025,55.1949
1341188428025,55.3314
1341188488025,55.2962
1341188548025,55.3103
1341188608025,55.1572
1341188668025,55.2783
1341188728025,55.4538
1341188788025,55.3118
1341188848025,55.1507
1341188908025,55.4180
1341188968025,55.4952
1341189028025,55.5305
1341189088025,55.6637
1341189148025,55.7341
1341189208025,55.8926
1341189268025,55.8325
1341189328025,55.6973
1341189388025,55.8032
1341189448025,55.7283
1341189508025,56.0300
1341189568025,56.2921
1341189628025,56.2370
1341189688025,55.8707
1341189748025,55.8389
1341189808025,55.5753
1341189868025,55.6033
1341189928025,55.7226
1341189988025,55.6315
1341190048025,55.6947
1341190108025,55.6801
1341190168025,55.6474
1341190228025,55.5377
1341190288025,55.3867
1341190348025,55.3248
1341190408025,55.3875
1341190468025,55.3314
1341190528025,55.3386
1341190588025,55.3088
1341190648025,55.4376
1341190708025,55.2203
1341190768025,55.4407
1341190828035,55.4166
1341190888035,55.3845
1341190948035,55.3122
1341191008035,55.4254
1341191068035,55.4394
1341191128035,55.4833
1341191188035,55.2783
1341191248035,55.2724
1341191308035,55.3358
1341191368035,55.1889
1341191428035,55.2102
1341191488035,55.2181
1341191548035,55.2474
1341191608035,55.2867
1341191668035,55.2418
1341191728035,55.2168
1341191788035,55.1796
1341191848035,54.9945
1341191908035,55.3449
1341191968035,55.1071
1341192028035,55.2414
1341192088035,55.0985
1341192148035,55.2024
1341192208035,55.1217
1341192268035,55.2336
1341192328035,55.2395
1341192388035,55.1120
1341192448035,55.0731
1341192508035,55.1384
1341192568035,55.0211
1341192628035,55.1107
1341192688035,55.2323
1341192748035,55.0441
1341192808035,55.0955
1341192868035,55.1728
1341192928035,55.1875
1341192988035,55.1754
1341193048035,55.2520
1341193108035,55.1707
1341193168035,55.3400
1341193228035,55.2770
1341193288035,55.1199
1341193348035,55.0575
1341193408035,55.3340
1341193468035,55.3742
1341193528035,55.1493
1341193588035,55.2629
1341193648035,55.2177
1341193708035,55.1208
1341193768035,55.2392
1341193828035,55.1940
1341193888035,55.3065
1341193948035,55.0913
1341194008035,55.0406
1341194068035,54.9381
1341194128035,54.9308
1341194188035,54.9231
1341194248035,55.0723
1341194308035,55.2299
1341194368035,54.9311
1341194428045,55.0663
1341194488045,55.0108
1341194548045,54.8940
1341194608045,55.0819
1341194668045,54.9922
1341194728045,54.9107
1341194788045,54.9280
1341194848045,55.0361
1341194908045,55.1042
1341194968045,54.8561
1341195028045,55.1134
1341195088045,55.0993
1341195148045,55.1157
1341195208045,55.1223
1341195268045,55.1108
1341195328045,55.1097
1341195388045,55.0571
1341195448045,54.8509
1341195508045,55.1392
1341195568045,55.1019
1341195628045,55.0440
1341195688045,55.1639
1341195748045,55.0524
1341195808045,55.0607
1341195868045,55.0140
1341195928045,54.9281
1341195988045,55.0980
1341196048045,54.9061
1341196108045,54.9742
1341196168045,55.0970
1341196228045,54.9206
1341196288045,55.0442
1341196348045,55.1728
1341196408045,55.0182
1341196468045,55.2023
1341196528045,55.1552
1341196588045,55.0457
1341196648045,55.2757
1341196708045,55.1279
1341196768045,55.2936
1341196828045,55.5317
1341196888045,55.2888
1341196948045,55.5187
1341197008045,55.3654
1341197068045,55.3265
1341197128045,55.0551
1341197188045,55.2724
1341197248045,55.1363
1341197308045,55.1210
1341197368045,55.1519
1341197428045,55.1181
1341197488045,55.2341
1341197548045,55.2007
1341197608045,55.4815
1341197668045,55.3128
1341197728045,55.2665
1341197788045,55.3684
1341197848045,55.5010
1341197908045,55.3349
1341197968045,55.2245
1341198028055,55.3195
1341198088055,55.2143
1341198148055,55.3116
1341198208055,55.3126
1341198268055,55.2810
1341198328055,55.3555
1341198388055,55.2157
1341198448055,55.4469
1341198508055,55.3196
1341198568055,55.2534
1341198628055,55.2040
1341198688055,55.2256
1341198748055,55.3786
1341198808055,55.1763
1341198868055,55.2002
1341198928055,55.4108
1341198988055,55.3289
1341199048055,55.3428
1341199108055,55.2707
1341199168055,55.4237
1341199228055,55.3490
1341199288055,55.3632
1341199348055,55.2864
1341199408055,55.4140
1341199468055,55.3870
1341199528055,55.4454
1341199588055,55.3480
1341199648055,55.2243
1341199708055,55.2351
1341199768055,55.2941
1341199828055,55.3485
1341199888055,55.3919
1341199948055,55.2730
1341200008055,55.3968
1341200068055,55.3698
1341200128055,55.4062
1341200188055,55.4624
1341200248055,55.4561
1341200308055,55.3461
1341200368055,55.3753
1341200428055,55.3043
1341200488055,55.2758
1341200548055,55.3826
1341200608055,55.3136
1341200668055,55.3743
1341200728055,55.2644
1341200788055,55.3294
1341200848055,55.4156
1341200908055,55.0836
1341200968055,55.2470
1341201028055,55.5294
1341201088055,55.1629
1341201148055,55.5877
1341201208055,55.1867
1341201268055,55.2497
1341201328055,55.1525
1341201388055,55.1936
1341201448055,55.2476
1341201508055,55.1579
1341201568055,55.4124
1341201628064,55.3592
1341201688064,55.5195
1341201748064,55.3517
1341201808064,55.4787
1341201868064,55.4252
1341201928064,55.2372
1341201988064,55.4180
1341202048064,55.3692
1341202108064,55.3439
1341202168064,55.4500
1341202228064,55.3462
1341202288064,55.3046
1341202348064,55.4142
1341202408064,55.2363
1341202468064,55.1210
1341202528064,55.3305
1341202588064,55.1025
1341202648064,55.1850
1341202708064,55.3162
1341202768064,55.2266
1341202828064,55.2427
1341202888064,55.3496
1341202948064,55.1896
1341203008064,55.2585
1341203068064,55.3797
1341203128064,55.2590
1341203188064,55.3389
1341203248064,55.3265
1341203308064,55.2055
1341203368064,55.3326
1341203428064,55.3760
1341203488064,55.2696
1341203548064,55.5251
1341203608064,55.4679
1341203668064,55.2269
1341203728064,55.6970
1341203788064,55.4412
1341203848064,55.2929
1341203908064,55.3620
1341203968064,55.5981
1341204028064,55.3596
1341204088064,55.5323
1341204148064,55.6291
1341204208064,55.5255
1341204268064,55.6101
1341204328064,55.7011
1341204388064,55.5470
1341204448064,55.4242
1341204508064,55.5696
1341204568064,55.6469
1341204628064,55.5534
1341204688064,55.7318
1341204748064,55.8219
1341204808064,55.8721
1341204868064,55.7931
1341204928064,55.8149
1341204988064,55.7036
1341205048064,55.7763
1341205108064,55.7233
1341205168064,55.6848
1341205228073,55.7712
1341205288073,55.5606
1341205348073,55.6694
1341205408073,55.7213
1341205468073,55.7217
1341205528073,56.0211
1341205588073,55.8958
1341205648073,55.8534
1341205708073,55.7361
1341205768073,55.7835
1341205828073,55.7722
1341205888073,55.8207
1341205948073,55.7144
1341206008073,55.7173
1341206068073,55.8084
1341206128073,55.8214
1341206188073,55.6970
1341206248073,55.6926
1341206308073,55.8198
1341206368073,55.6490
1341206428073,55.8330
1341206488073,55.8436
1341206548073,55.7794
1341206608073,56.0812
1341206668073,55.4642
1341206728073,55.4477
1341206788073,55.5571
1341206848073,55.7599
1341206908073,55.7240
1341206968073,55.4820
1341207028073,55.6346
1341207088073,55.4387
1341207148073,55.7271
1341207208073,55.4393
1341207268073,55.5709
1341207328073,55.5491
1341207388073,55.6288
1341207448073,55.4927
1341207508073,55.5502
1341207568073,55.5299
1341207628073,55.3946
1341207688073,55.4995
1341207748073,55.4708
1341207808073,55.3972
1341207868073,55.4780
1341207928073,55.4613
1341207988073,55.3067
1341208048073,55.2813
1341208108073,55.2736
1341208168073,55.2696
1341208228073,55.4428
1341208288073,55.3548
1341208348073,55.2774
1341208408073,55.3351
1341208468073,55.2235
1341208528073,55.3641
1341208588073,55.3910
1341208648073,55.2869
1341208708073,55.3034
1341208768073,55.2103
1341208828082,55.2421
1341208888082,55.2263
1341208948082,55.1090
1341209008082,55.2848
1341209068082,55.2441
1341209128082,55.1887
1341209188082,55.2993
1341209248082,55.3480
1341209308082,55.0175
1341209368082,55.1440
1341209428082,55.2132
1341209488082,55.2144
1341209548082,55.2418
1341209608082,55.3464
1341209668082,55.3397
1341209728082,55.2553
1341209788082,55.3312
1341209848082,55.3125
1341209908082,55.3717
1341209968082,55.3089
1341210028082,55.3459
1341210088082,55.2936
1341210148082,55.3551
1341210208082,55.3381
1341210268082,55.3467
1341210328082,55.3277
1341210388082,55.3267
1341210448082,55.3108
1341210508082,55.3229
1341210568082,55.3073
1341210628082,55.5333
1341210688082,55.3179
1341210748082,55.2827
1341210808082,55.1996
1341210868082,55.5178
1341210928082,55.5371
1341210988082,55.3914
1341211048082,55.4191
1341211108082,55.3919
1341211168082,55.2728
1341211228082,55.4130
1341211288082,55.4317
1341211348082,55.1634
1341211408082,55.4148
1341211468082,55.3014
1341211528082,55.4617
1341211588082,55.4086
1341211648082,55.4157
1341211708082,55.3843
1341211768082,55.3373
1341211828082,55.3129
1341211888082,55.3910
1341211948082,55.4078
1341212008082,55.5716
1341212068082,55.2370
1341212128082,55.2999
1341212188082,55.3093
1341212248082,55.3298
1341212308082,55.3983
1341212368082,55.2336
1341212428092,55.1558
1341212488092,55.3110
1341212548092,55.3877
1341212608091,55.2403
1341212668091,55.3246
1341212728091,55.4906
1341212788091,55.6681
1341212848091,55.3030
1341212908092,55.2985
1341212968092,55.3752
1341213028092,55.4442
1341213088092,55.4824
1341213148092,55.2191
1341213208092,55.2912
1341213268092,55.3498
1341213328092,55.2862
1341213388092,55.3435
1341213448092,55.3899
1341213508092,55.2809
1341213568092,55.4143
1341213628092,55.3857
1341213688092,55.3803
1341213748092,55.4284
1341213808092,55.4603
1341213868092,55.4182
1341213928092,55.3498
1341213988091,55.4953
1341214048091,55.5482
1341214108091,55.3747
1341214168091,55.4607
1341214228091,55.5506
1341214288092,55.4372
1341214348092,55.4705
1341214408092,55.5117
1341214468092,55.7364
1341214528092,55.4975
1341214588092,55.7321
1341214648092,55.6826
1341214708092,55.5919
1341214768092,55.6066
1341214828092,55.6251
1341214888092,55.6005
1341214948092,55.6838
1341215008092,55.6922
1341215068092,55.6497
1341215128092,55.7344
1341215188092,55.6934
1341215248092,55.7594
1341215308091,55.6222
1341215368091,55.6868
1341215428091,55.7377
1341215488091,55.7583
1341215548091,55.8399
1341215608092,55.6682
1341215668092,56.0192
1341215728092,55.7405
1341215788092,55.7869
1341215848092,55.7259
1341215908092,55.7688
1341215968092,55.7406
1341216028101,55.7182
1341216088101,55.7774
1341216148101,55.7214
1341216208101,55.7154
1341216268101,55.7027
1341216328101,55.9473
1341216388101,55.7961
1341216448101,55.8002
1341216508101,55.8387
1341216568101,55.8435
1341216628101,55.6959
1341216688101,55.8274
1341216748101,55.9423
1341216808101,55.8806
1341216868101,55.8936
1341216928101,55.9519
1341216988101,55.8602
1341217048101,55.9158
1341217108101,55.7910
1341217168101,55.9095
1341217228101,55.9665
1341217288101,55.9557
1341217348101,55.6968
1341217408101,55.7400
1341217468101,55.6908
1341217528101,55.8840
1341217588101,55.7883
1341217648101,55.5338
1341217708101,55.7820
1341217768101,55.7895
1341217828101,55.6376
1341217888101,55.6345
1341217948101,55.4896
1341218008101,55.7470
1341218068101,55.4437
1341218128101,55.6184
1341218188101,55.5992
1341218248101,55.7810
1341218308101,55.4967
1341218368101,55.5214
1341218428101,55.7238
1341218488101,55.7655
1341218548101,55.6424
1341218608101,55.7037
1341218668101,55.5956
1341218728101,55.6307
1341218788101,55.6502
1341218848101,55.4786
1341218908101,55.7715
1341218968101,55.4788
1341219028101,55.4492
1341219088101,55.4488
1341219148101,55.6530
1341219208101,55.5681
1341219268101,55.8070
1341219328101,55.5679
1341219388101,55.6703
1341219448101,55.4909
1341219508101,55.4718
1341219568101,55.4145
1341219628110,55.5060
1341219688110,55.2832
1341219748110,55.2984
1341219808110,55.3382
1341219868110,55.2436
1341219928110,55.0712
1341219988110,55.3466
1341220048110,55.1357
1341220108110,55.3850
1341220168110,55.3139
1341220228110,55.0872
1341220288110,55.2945
1341220348110,55.3047
1341220408110,55.2902
1341220468110,55.1939
1341220528110,55.1906
1341220588110,55.1745
1341220648110,55.3349
1341220708110,55.2448
1341220768110,55.4491
1341220828110,55.3095
1341220888110,55.2638
1341220948110,55.4411
1341221008110,55.4258
1341221068110,55.5899
1341221128110,55.2771
1341221188110,55.3714
1341221248110,55.3221
1341221308110,55.3919
1341221368110,55.4028
1341221428110,55.3362
1341221488110,55.4730
1341221548110,55.2248
1341221608110,55.3643
1341221668110,55.2912
1341221728110,55.3905
1341221788110,55.2507
1341221848110,55.1560
1341221908110,55.2434
1341221968110,55.2821
1341222028110,55.2164
1341222088110,55.3500
1341222148110,55.1919
1341222208110,55.1937
1341222268110,55.2119
1341222328110,55.4051
1341222388110,55.2008
1341222448110,55.3702
1341222508110,55.3260
1341222568110,55.3806
1341222628110,55.4660
1341222688110,55.3731
1341222748110,55.3581
1341222808110,55.3567
1341222868110,55.3548
1341222928110,55.4668
1341222988110,55.3011
1341223048110,55.3045
1341223108110,55.4604
1341223168110,55.3400
1341223228119,55.3675
1341223288119,55.4461
1341223348119,55.2485
1341223408119,55.4441
1341223468119,55.4236
1341223528119,55.4373
1341223588119,55.3070
1341223648119,55.3066
1341223708119,55.4555
1341223768119,55.6755
1341223828119,55.4082
1341223888119,55.6207
1341223948119,55.6116
1341224008119,55.4728
1341224068119,55.4357
1341224128119,55.7127
1341224188119,55.5642
1341224248119,55.5660
1341224308119,55.6363
1341224368119,55.5068
1341224428119,55.5548
1341224488119,55.6868
1341224548119,55.4974
1341224608119,55.6610
1341224668119,55.6187
1341224728119,55.6081
1341224788119,55.7146
1341224848119,55.7194
1341224908119,55.7664
1341224968119,55.6710
1341225028119,55.7036
1341225088119,55.7732
1341225148119,55.7177
1341225208119,55.7380
1341225268119,55.6931
1341225328119,55.8648
1341225388119,56.0635
1341225448119,56.0219
1341225508119,55.9132
1341225568119,56.1395
1341225628119,56.0905
1341225688119,56.0355
1341225748119,55.9254
1341225808119,55.8940
1341225868119,55.9172
1341225928119,56.3612
1341225988119,57.4746
1341226048119,59.3030
1341226108119,59.2279
1341226168119,59.3908
1341226228119,59.0958
1341226288119,58.8087
1341226348119,58.7169
1341226408119,58.5361
1341226468119,58.7782
1341226528119,58.3522
1341226588119,58.2863
1341226648119,58.2298
1341226708119,58.5409
1341226768119,58.2283
1341226828128,57.9888
1341226888128,57.8944
1341226948128,57.7459
1341227008128,57.6861
1341227068128,57.4240
1341227128128,57.4048
1341227188128,57.0694
1341227248128,56.9814
1341227308128,56.8632
1341227368128,56.9605
1341227428128,56.6409
1341227488128,56.5730
1341227548128,56.4270
1341227608128,56.3228
1341227668128,56.2973
1341227728128,56.2123
1341227788128,56.1065
1341227848128,55.9656
1341227908128,55.8966
1341227968128,55.9966
1341228028128,55.7324
1341228088128,55.7407
1341228148128,55.8168
1341228208128,56.0143
1341228268128,55.8166
1341228328128,55.8241
1341228388128,55.8334
1341228448128,55.8472
1341228508128,55.9501
1341228568128,55.7868
1341228628128,55.7088
1341228688128,55.8064
1341228748128,55.7115
1341228808128,55.7390
1341228868128,55.8908
1341228928128,55.7587
1341228988128,55.6484
1341229048128,55.8362
1341229108128,55.7419
1341229168128,55.9447
1341229228128,55.7269
1341229288128,55.7669
1341229348128,55.8170
1341229408128,55.7440
1341229468128,55.6794
1341229528128,55.8754
1341229588128,55.8575
1341229648128,55.8502
1341229708128,55.6484
1341229768128,55.8944
1341229828128,55.8049
1341229888128,55.6815
1341229948128,55.6721
1341230008128,55.9862
1341230068128,55.8222
1341230128128,55.8202
1341230188128,55.9041
1341230248128,55.9217
1341230308128,55.9476
1341230368128,55.9714
1341230428137,55.7900
1341230488137,56.0134
1341230548137,56.0305
1341230608137,55.9353
1341230668137,55.9549
1341230728137,56.1131
1341230788137,56.0572
1341230848137,55.9851
1341230908137,55.9334
1341230968137,56.1449
1341231028137,56.1735
1341231088137,56.0138
1341231148137,56.2854
1341231208137,56.2501
1341231268137,56.3790
1341231328137,56.1568
1341231388137,56.2840
1341231448137,56.2438
1341231508137,56.3824
1341231568137,56.3836
1341231628137,56.2831
1341231688137,56.1180
1341231748137,56.3954
1341231808137,56.4805
1341231868137,56.6065
1341231928137,56.4010
1341231988137,56.5581
1341232048137,56.5732
1341232108137,56.5092
1341232168137,56.4980
1341232228137,56.3395
1341232288137,56.4498
1341232348137,56.4770
1341232408137,56.5497
1341232468137,56.5028
1341232528137,56.3412
1341232588137,56.3615
1341232648137,56.3636
1341232708137,56.2342
1341232768137,56.4450
1341232828137,56.3110
1341232888137,56.3054
1341232948137,56.3319
1341233008137,56.4983
1341233068137,56.3787
1341233128137,56.2427
1341233188137,56.1812
1341233248137,56.4637
1341233308137,56.3131
1341233368137,56.2962
1341233428137,56.5909
1341233488137,56.3236
1341233548137,56.2588
1341233608137,56.2243
1341233668137,56.3128
1341233728137,56.2883
1341233788137,56.3607
1341233848137,56.3897
1341233908137,56.4321
1341233968137,56.3018
1341234028146,56.1175
1341234088146,56.4539
1341234148146,56.2873
1341234208146,56.2193
1341234268146,56.4532
1341234328146,56.3853
1341234388146,56.3281
1341234448146,56.2888
1341234508146,56.5567
1341234568146,56.4021
1341234628146,56.4987
1341234688146,56.3937
1341235228146,56.3518
1341235288146,56.4408
1341235348146,56.5119
1341235408146,56.4921
1341235468146,56.4733
1341235528146,56.3083
1341235588146,56.2726
1341235648146,56.4462
1341235708146,56.3683
1341235768146,56.2415
1341235828146,56.3977
1341235888146,56.5152
1341235948146,56.3991
1341236008146,56.3518
1341236068146,56.4286
1341236128146,56.5682
1341236188146,56.6002
1341236248146,56.6243
1341236308146,56.2616
1341236368146,56.4901
1341236428146,56.6662
1341236488146,56.9737
1341236548146,56.9477
1341236608146,56.8773
1341236668146,56.8926
1341236728146,56.9238
1341236788146,56.8346
1341236848146,56.6846
1341236908146,56.5328
1341236968146,56.5745
1341237028146,56.5594
1341237088146,56.5169
1341237148146,56.5763
1341237208146,56.4158
1341237268146,56.3555
1341237328146,56.6808
1341237388146,56.6613
1341237448146,56.6687
1341237508146,56.6192
1341237568146,56.5150
1341237628155,56.7796
1341237688155,56.5776
1341237748155,56.5755
1341237808155,56.4791
1341237868155,56.5176
1341237928155,56.4871
1341237988155,56.5935
1341238048155,56.5744
1341238108155,56.4768
1341238168155,56.2829
1341238228155,56.4116
1341238288155,56.2793
1341238348155,56.3153
1341238408155,56.4049
1341238468155,56.3262
1341238528155,56.4705
1341238588155,56.4522
1341238648155,56.3532
1341238708155,56.3459
1341238768155,56.3218
1341238828155,56.4617
1341238888155,56.1943
1341238948155,56.2310
1341239008155,56.1316
1341239068155,56.2637
1341239128155,56.2152
1341239188155,56.3961
1341239248155,56.2419
1341239308155,56.1782
1341239368155,56.1550
1341239428155,56.0178
1341239488155,56.1633
1341239548155,56.1299
1341239608155,56.1484
1341239668155,56.0629
1341239728155,56.2126
1341239788155,55.9857
1341239848155,56.0239
1341239908155,56.1118
1341239968155,56.1095
1341240028155,55.9365
1341240088155,56.1691
1341240148155,56.2258
1341240208155,56.0403
1341240268155,55.9724
1341240328155,56.1498
1341240388155,56.2760
1341240448155,56.2198
1341240508155,56.1594
1341240568155,56.1264
1341240628155,56.1076
1341240688155,56.1989
1341240748155,55.9039
1341240808155,56.0874
1341240868155,56.0656
1341240928155,56.0836
1341240988155,56.3057
1341241048155,56.0640
1341241108155,55.9567
1341241168155,56.1072
1341241228165,55.8223
1341241288165,55.8112
1341241348165,55.9362
1341241408165,56.0209
1341241468165,55.8077
1341241528165,55.8544
1341241588165,55.7362
1341241648165,55.6671
1341241708165,55.7855
1341241768165,55.6618
1341241828165,55.7708
1341241888165,55.6995
1341241948165,55.6864
1341242008165,55.7685
1341242068165,55.6941
1341242128165,55.8576
1341242188165,55.7479
1341242248165,55.6239
1341242308165,55.6832
1341242368165,55.6979
1341242428165,55.6207
1341242488165,55.6313
1341242548165,55.5697
1341242608165,55.7537
1341242668165,55.5345
1341242728165,55.5344
1341242788165,55.3702
1341242848165,55.4317
1341242908165,55.3772
1341242968165,55.5844
1341243028165,55.6561
1341243088165,55.4930
1341243148165,55.4310
1341243208165,55.2549
1341243268165,55.3579
1341243328165,55.3384
1341243388165,55.4974
1341243448165,55.6263
1341243508165,55.4869
1341243568165,55.4480
1341243628165,55.5523
1341243688165,55.5219
1341243748165,55.5704
1341243808165,55.3531
1341243868165,55.4097
1341243928165,55.5594
1341243988165,55.5701
1341244048165,55.5493
1341244108165,55.6924
1341244168165,55.6182
1341244228165,55.4858
1341244288165,55.7006
1341244348165,55.7368
1341244408165,55.7107
1341244468165,55.7524
1341244528165,55.7744
1341244588165,55.7118
1341244648165,55.6805
1341244708165,55.6099
1341244768165,55.6746
1341244828174,55.7584
1341244888174,55.6168
1341244948174,55.6576
1341245008174,55.5157
1341245068174,55.5273
1341245128174,55.5606
1341245188174,55.5905
1341245248174,55.4949
1341245308174,55.3715
1341245368174,55.3707
1341245428174,55.6922
1341245488174,55.6118
1341245548174,55.4872
1341245608174,55.5114
1341245668174,55.4412
1341245728174,55.5802
1341245788174,55.5815
1341245848174,55.4199
1341245908174,55.3601
1341245968174,55.3245
1341246028174,55.3297
1341246088174,55.3539
1341246148174,55.3443
1341246208174,55.4770
1341246268174,55.2740
1341246328174,55.4346
1341246388174,55.4313
1341246448174,55.3656
1341246508174,55.3305
1341246568174,55.3055
1341246628174,55.1781
1341246688174,55.0570
1341246748174,55.1363
1341246808174,55.2030
1341246868174,55.2874
1341246928174,55.1460
1341246988174,55.2422
1341247048174,55.2394
1341247108174,55.1937
1341247168174,55.3112
1341247228174,55.2843
1341247288174,55.4056
1341247348174,55.4457
1341247408174,55.5728
1341247468174,55.5503
1341247528174,55.4904
1341247588174,55.4982
1341247648174,55.2848
1341247708174,55.5389
1341247768174,55.5275
1341247828174,55.5361
1341247888174,55.5246
1341247948174,55.4666
1341248008174,55.6417
1341248068174,55.4645
1341248128174,55.5932
1341248188174,55.5559
1341248248174,55.6052
1341248308174,55.5109
1341248368174,55.6184
1341248428184,55.6921
1341248488184,55.7313
1341248548184,55.7159
1341248608184,55.4955
1341248668184,55.4048
1341248728184,55.6266
1341248788184,55.5214
1341248848184,55.4568
1341248908184,55.7123
1341248968184,55.8123
1341249028184,55.7052
1341249088184,55.7711
1341249148184,55.7911
1341249208184,55.7428
1341249268184,55.7935
1341249328184,55.7295
1341249388184,55.7520
1341249448184,55.9516
1341249508184,55.8631
1341249568184,55.9166
1341249628184,55.7095
1341249688184,55.7065
1341249748184,55.9715
1341249808184,55.9123
1341249868184,55.9225
1341249928184,55.9339
1341249988184,55.8158
1341250048184,55.9812
1341250108184,55.7711
1341250168184,55.8892
1341250228184,55.9762
1341250288184,55.9487
1341250348184,55.8240
1341250408184,55.8414
1341250468184,55.9822
1341250528184,56.0665
1341250588184,55.9189
1341250648184,55.9286
1341250708184,55.9819
1341250768184,55.7731
1341250828184,55.7139
1341250888184,55.7663
1341250948184,55.8183
1341251008184,55.9791
1341251068184,55.9224
1341251128184,56.0109
1341251188184,56.0155
1341251248184,56.1395
1341251308184,56.2805
1341251368184,56.1215
1341251428184,56.0609
1341251488184,55.9750
1341251548184,56.0904
1341251608184,55.9827
1341251668184,55.9546
1341251728184,55.9062
1341251788184,55.8058
1341251848184,55.7903
1341251908184,55.9232
1341251968184,55.8472
1341252028194,55.8974
1341252088194,56.0098
1341252148194,55.9507
1341252208194,55.7953
1341252268194,55.7109
1341252328194,56.2749
1341252388194,56.2728
1341252448194,56.0263
1341252508194,55.9699
1341252568194,56.1080
1341252628194,56.1643
1341252688194,56.0080
1341252748194,55.9326
1341252808194,56.0535
1341252868194,56.0766
1341252928194,56.0976
1341252988194,56.2472
1341253048194,56.3082